CALSPHERE 1 1 00900U 64063C 25347.66856266 .00000901 00000+0 91131-3 0 9991 2 00900 90.2212 67.4801 0027574 133.5249 350.9285 13.76369752 45904 CALSPHERE 2 1 00902U 64063E 25347.70104220 .00000075 00000+0 98936-4 0 9997 2 00902 90.2361 71.4241 0019963 50.2425 75.1943 13.52883141831185 LCS 1 1 01361U 65034C 25347.47352272 .00000010 00000+0 23610-3 0 9997 2 01361 32.1409 257.9829 0013505 185.2313 174.8044 9.89309600191497 TEMPSAT 1 1 01512U 65065E 25347.66402995 .00000060 00000+0 10218-3 0 9993 2 01512 89.9878 212.6677 0071059 50.5786 10.1281 13.33582385935320 CALSPHERE 4A 1 01520U 65065H 25347.66219992 .00000155 00000+0 28077-3 0 9992 2 01520 89.9097 124.2327 0068231 266.9224 103.5632 13.36239925937938 OPS 5712 (P/L 160) 1 02826U 67053A 25347.65517672 .00012221 00000+0 18525-2 0 9999 2 02826 69.9171 131.9330 0005567 289.5047 70.5497 14.74274478 38855 OPS 5712 (P/L 153) 1 02874U 67053H 25347.65325357 .00000091 00000+0 10405-3 0 9991 2 02874 69.9723 152.9736 0004470 68.2102 291.9479 13.96792100980877 RIGIDSPHERE 2 (LCS 4) 1 05398U 71067E 25347.64265787 .00000997 00000+0 31928-3 0 9992 2 05398 87.6213 30.2997 0062070 127.2893 233.3988 14.37564172847220 COSMOS 2493 (SKRL-756 1) 1 39490U 13078A 25347.69548739 .00004985 00000+0 38959-3 0 9998 2 39490 82.4137 82.4968 0014180 148.1266 212.0819 15.00827419650125 COSMOS 2494 (SKRL-756 2) 1 39491U 13078B 25347.68455526 .00004933 00000+0 35999-3 0 9993 2 39491 82.4131 72.6511 0018064 114.4182 245.8931 15.03363741650926